Year,Month,Day,Hour,Minute,Value (Times are PST for temperature in C)
2014,04,20,00,00,4.70
2014,04,20,00,01,4.70
2014,04,20,00,02,4.70
2014,04,20,00,03,4.70
2014,04,20,00,04,4.70
2014,04,20,00,05,4.70
2014,04,20,00,06,4.70
2014,04,20,00,07,4.70
2014,04,20,00,08,4.70
2014,04,20,00,09,4.70
2014,04,20,00,10,4.70
2014,04,20,00,11,4.70
2014,04,20,00,12,4.70
2014,04,20,00,13,4.70
2014,04,20,00,14,4.70
2014,04,20,00,15,4.70
2014,04,20,00,16,4.70
2014,04,20,00,17,4.70
2014,04,20,00,18,4.60
2014,04,20,00,19,4.60
2014,04,20,00,20,4.60
2014,04,20,00,21,4.60
2014,04,20,00,22,4.60
2014,04,20,00,23,4.60
2014,04,20,00,24,4.60
2014,04,20,00,25,4.60
2014,04,20,00,26,4.60
2014,04,20,00,27,4.60
2014,04,20,00,28,4.60
2014,04,20,00,29,4.60
2014,04,20,00,30,4.60
2014,04,20,00,31,4.60
2014,04,20,00,32,4.70
2014,04,20,00,33,4.70
2014,04,20,00,34,4.70
2014,04,20,00,35,4.70
2014,04,20,00,36,4.70
2014,04,20,00,37,4.70
2014,04,20,00,38,4.70
2014,04,20,00,39,4.70
2014,04,20,00,40,4.70
2014,04,20,00,41,4.70
2014,04,20,00,42,4.70
2014,04,20,00,43,4.70
2014,04,20,00,44,4.70
2014,04,20,00,45,4.70
2014,04,20,00,46,4.60
2014,04,20,00,47,4.60
2014,04,20,00,48,4.60
2014,04,20,00,49,4.60
2014,04,20,00,50,4.60
2014,04,20,00,51,4.60
2014,04,20,00,52,4.60
2014,04,20,00,53,4.60
2014,04,20,00,54,4.60
2014,04,20,00,55,4.60
2014,04,20,00,56,4.60
2014,04,20,00,57,4.70
2014,04,20,00,58,4.70
2014,04,20,00,59,4.70
2014,04,20,01,00,4.70
2014,04,20,01,01,4.70
2014,04,20,01,02,4.70
2014,04,20,01,03,4.70
2014,04,20,01,04,4.70
2014,04,20,01,05,4.70
2014,04,20,01,06,4.60
2014,04,20,01,07,4.60
2014,04,20,01,08,4.60
2014,04,20,01,09,4.50
2014,04,20,01,10,4.50
2014,04,20,01,11,4.50
2014,04,20,01,12,4.40
2014,04,20,01,13,4.40
2014,04,20,01,14,4.40
2014,04,20,01,15,4.30
2014,04,20,01,16,4.30
2014,04,20,01,17,4.30
2014,04,20,01,18,4.30
2014,04,20,01,19,4.30
2014,04,20,01,20,4.30
2014,04,20,01,21,4.20
2014,04,20,01,22,4.20
2014,04,20,01,23,4.20
2014,04,20,01,24,4.20
2014,04,20,01,25,4.20
2014,04,20,01,26,4.20
2014,04,20,01,27,4.10
2014,04,20,01,28,4.10
2014,04,20,01,29,4.10
2014,04,20,01,30,4.10
2014,04,20,01,31,4.10
2014,04,20,01,32,4.00
2014,04,20,01,33,4.00
2014,04,20,01,34,4.00
2014,04,20,01,35,4.00
2014,04,20,01,36,3.90
2014,04,20,01,37,3.90
2014,04,20,01,38,3.90
2014,04,20,01,39,4.00
2014,04,20,01,40,4.00
2014,04,20,01,41,3.90
2014,04,20,01,42,3.90
2014,04,20,01,43,3.90
2014,04,20,01,44,3.90
2014,04,20,01,45,3.80
2014,04,20,01,46,3.80
2014,04,20,01,47,3.80
2014,04,20,01,48,3.80
2014,04,20,01,49,3.70
2014,04,20,01,50,3.70
2014,04,20,01,51,3.70
2014,04,20,01,52,3.70
2014,04,20,01,53,3.70
2014,04,20,01,54,3.70
2014,04,20,01,55,3.60
2014,04,20,01,56,3.60
2014,04,20,01,57,3.60
2014,04,20,01,58,3.50
2014,04,20,01,59,3.50
2014,04,20,02,00,3.50
2014,04,20,02,01,3.40
2014,04,20,02,02,3.40
2014,04,20,02,03,3.40
2014,04,20,02,04,3.40
2014,04,20,02,05,3.40
2014,04,20,02,06,3.40
2014,04,20,02,07,3.40
2014,04,20,02,08,3.40
2014,04,20,02,09,3.30
2014,04,20,02,10,3.30
2014,04,20,02,11,3.30
2014,04,20,02,12,3.30
2014,04,20,02,13,3.30
2014,04,20,02,14,3.30
2014,04,20,02,15,3.30
2014,04,20,02,16,3.20
2014,04,20,02,17,3.20
2014,04,20,02,18,3.20
2014,04,20,02,19,3.20
2014,04,20,02,20,3.20
2014,04,20,02,21,3.20
2014,04,20,02,22,3.30
2014,04,20,02,23,3.30
2014,04,20,02,24,3.30
2014,04,20,02,25,3.30
2014,04,20,02,26,3.30
2014,04,20,02,27,3.30
2014,04,20,02,28,3.40
2014,04,20,02,29,3.40
2014,04,20,02,30,3.40
2014,04,20,02,31,3.40
2014,04,20,02,32,3.30
2014,04,20,02,33,3.30
2014,04,20,02,34,3.30
2014,04,20,02,35,3.30
2014,04,20,02,36,3.30
2014,04,20,02,37,3.20
2014,04,20,02,38,3.20
2014,04,20,02,39,3.20
2014,04,20,02,40,3.20
2014,04,20,02,41,3.20
2014,04,20,02,42,3.10
2014,04,20,02,43,3.10
2014,04,20,02,44,3.10
2014,04,20,02,45,3.10
2014,04,20,02,46,3.00
2014,04,20,02,47,3.00
2014,04,20,02,48,3.00
2014,04,20,02,49,3.00
2014,04,20,02,50,2.90
2014,04,20,02,51,2.90
2014,04,20,02,52,2.90
2014,04,20,02,53,2.90
2014,04,20,02,54,2.90
2014,04,20,02,55,2.80
2014,04,20,02,56,2.80
2014,04,20,02,57,2.80
2014,04,20,02,58,2.70
2014,04,20,02,59,2.70
2014,04,20,03,00,2.70
2014,04,20,03,01,2.70
2014,04,20,03,02,2.70
2014,04,20,03,03,2.60
2014,04,20,03,04,2.60
2014,04,20,03,05,2.60
2014,04,20,03,06,2.60
2014,04,20,03,07,2.60
2014,04,20,03,08,2.60
2014,04,20,03,09,2.60
2014,04,20,03,10,2.60
2014,04,20,03,11,2.60
2014,04,20,03,12,2.70
2014,04,20,03,13,2.70
2014,04,20,03,14,2.70
2014,04,20,03,15,2.70
2014,04,20,03,16,2.70
2014,04,20,03,17,2.70
2014,04,20,03,18,2.70
2014,04,20,03,19,2.70
2014,04,20,03,20,2.70
2014,04,20,03,21,2.70
2014,04,20,03,22,2.70
2014,04,20,03,23,2.70
2014,04,20,03,24,2.70
2014,04,20,03,25,2.70
2014,04,20,03,26,2.70
2014,04,20,03,27,2.70
2014,04,20,03,28,2.60
2014,04,20,03,29,2.60
2014,04,20,03,30,2.60
2014,04,20,03,31,2.60
2014,04,20,03,32,2.60
2014,04,20,03,33,2.50
2014,04,20,03,34,2.50
2014,04,20,03,35,2.50
2014,04,20,03,36,2.50
2014,04,20,03,37,2.50
2014,04,20,03,38,2.50
2014,04,20,03,39,2.50
2014,04,20,03,40,2.60
2014,04,20,03,41,2.60
2014,04,20,03,42,2.60
2014,04,20,03,43,2.60
2014,04,20,03,44,2.50
2014,04,20,03,45,2.50
2014,04,20,03,46,2.50
2014,04,20,03,47,2.50
2014,04,20,03,48,2.40
2014,04,20,03,49,2.40
2014,04,20,03,50,2.40
2014,04,20,03,51,2.40
2014,04,20,03,52,2.40
2014,04,20,03,53,2.30
2014,04,20,03,54,2.30
2014,04,20,03,55,2.30
2014,04,20,03,56,2.20
2014,04,20,03,57,2.20
2014,04,20,03,58,2.10
2014,04,20,03,59,2.10
2014,04,20,04,00,2.00
2014,04,20,04,01,2.00
2014,04,20,04,02,1.90
2014,04,20,04,03,1.90
2014,04,20,04,04,1.90
2014,04,20,04,05,1.90
2014,04,20,04,06,1.90
2014,04,20,04,07,1.90
2014,04,20,04,08,1.80
2014,04,20,04,09,1.80
2014,04,20,04,10,1.80
2014,04,20,04,11,1.80
2014,04,20,04,12,1.80
2014,04,20,04,13,1.80
2014,04,20,04,14,1.80
2014,04,20,04,15,1.70
2014,04,20,04,16,1.70
2014,04,20,04,17,1.70
2014,04,20,04,18,1.70
2014,04,20,04,19,1.70
2014,04,20,04,20,1.70
2014,04,20,04,21,1.70
2014,04,20,04,22,1.70
2014,04,20,04,23,1.70
2014,04,20,04,24,1.70
2014,04,20,04,25,1.60
2014,04,20,04,26,1.60
2014,04,20,04,27,1.60
2014,04,20,04,28,1.60
2014,04,20,04,29,1.60
2014,04,20,04,30,1.60
2014,04,20,04,31,1.50
2014,04,20,04,32,1.50
2014,04,20,04,33,1.40
2014,04,20,04,34,1.40
2014,04,20,04,35,1.40
2014,04,20,04,36,1.40
2014,04,20,04,37,1.40
2014,04,20,04,38,1.40
2014,04,20,04,39,1.50
2014,04,20,04,40,1.50
2014,04,20,04,41,1.50
2014,04,20,04,42,1.60
2014,04,20,04,43,1.60
2014,04,20,04,44,1.60
2014,04,20,04,45,1.70
2014,04,20,04,46,1.70
2014,04,20,04,47,1.70
2014,04,20,04,48,1.70
2014,04,20,04,49,1.70
2014,04,20,04,50,1.70
2014,04,20,04,51,1.70
2014,04,20,04,52,1.60
2014,04,20,04,53,1.60
2014,04,20,04,54,1.60
2014,04,20,04,55,1.60
2014,04,20,04,56,1.60
2014,04,20,04,57,1.60
2014,04,20,04,58,1.60
2014,04,20,04,59,1.60
2014,04,20,05,00,1.60
2014,04,20,05,01,1.60
2014,04,20,05,02,1.60
2014,04,20,05,03,1.70
2014,04,20,05,04,1.70
2014,04,20,05,05,1.70
2014,04,20,05,06,1.70
2014,04,20,05,07,1.70
2014,04,20,05,08,1.70
2014,04,20,05,09,1.70
2014,04,20,05,10,1.70
2014,04,20,05,11,1.80
2014,04,20,05,12,1.80
2014,04,20,05,13,1.80
2014,04,20,05,14,1.80
2014,04,20,05,15,1.80
2014,04,20,05,16,1.80
2014,04,20,05,17,1.80
2014,04,20,05,18,1.80
2014,04,20,05,19,1.80
2014,04,20,05,20,1.90
2014,04,20,05,21,1.90
2014,04,20,05,22,1.90
2014,04,20,05,23,1.90
2014,04,20,05,24,1.90
2014,04,20,05,25,1.90
2014,04,20,05,26,1.90
2014,04,20,05,27,1.90
2014,04,20,05,28,1.90
2014,04,20,05,29,2.00
2014,04,20,05,30,2.00
2014,04,20,05,31,2.00
2014,04,20,05,32,2.00
2014,04,20,05,33,2.10
2014,04,20,05,34,2.10
2014,04,20,05,35,2.10
2014,04,20,05,36,2.10
2014,04,20,05,37,2.10
2014,04,20,05,38,2.10
2014,04,20,05,39,2.10
2014,04,20,05,40,2.10
2014,04,20,05,41,2.10
2014,04,20,05,42,2.10
2014,04,20,05,43,2.10
2014,04,20,05,44,2.10
2014,04,20,05,45,2.10
2014,04,20,05,46,2.10
2014,04,20,05,47,2.10
2014,04,20,05,48,2.10
2014,04,20,05,49,2.20
2014,04,20,05,50,2.20
2014,04,20,05,51,2.30
2014,04,20,05,52,2.40
2014,04,20,05,53,2.40
2014,04,20,05,54,2.40
2014,04,20,05,55,2.50
2014,04,20,05,56,2.50
2014,04,20,05,57,2.40
2014,04,20,05,58,2.40
2014,04,20,05,59,2.40
2014,04,20,06,00,2.40
2014,04,20,06,01,2.40
2014,04,20,06,02,2.40
2014,04,20,06,03,2.40
2014,04,20,06,04,2.40
2014,04,20,06,05,2.40
2014,04,20,06,06,2.40
2014,04,20,06,07,2.40
2014,04,20,06,08,2.40
2014,04,20,06,09,2.40
2014,04,20,06,10,2.40
2014,04,20,06,11,2.40
2014,04,20,06,12,2.40
2014,04,20,06,13,2.40
2014,04,20,06,14,2.40
2014,04,20,06,15,2.50
2014,04,20,06,16,2.50
2014,04,20,06,17,2.50
2014,04,20,06,18,2.50
2014,04,20,06,19,2.60
2014,04,20,06,20,2.60
2014,04,20,06,21,2.60
2014,04,20,06,22,2.60
2014,04,20,06,23,2.60
2014,04,20,06,24,2.60
2014,04,20,06,25,2.60
2014,04,20,06,26,2.60
2014,04,20,06,27,2.60
2014,04,20,06,28,2.60
2014,04,20,06,29,2.60
2014,04,20,06,30,2.60
2014,04,20,06,31,2.60
2014,04,20,06,32,2.60
2014,04,20,06,33,2.60
2014,04,20,06,34,2.70
2014,04,20,06,35,2.70
2014,04,20,06,36,2.70
2014,04,20,06,37,2.70
2014,04,20,06,38,2.70
2014,04,20,06,39,2.70
2014,04,20,06,40,2.70
2014,04,20,06,41,2.70
2014,04,20,06,42,2.70
2014,04,20,06,43,2.70
2014,04,20,06,44,2.70
2014,04,20,06,45,2.70
2014,04,20,06,46,2.70
2014,04,20,06,47,2.70
2014,04,20,06,48,2.80
2014,04,20,06,49,2.80
2014,04,20,06,50,2.80
2014,04,20,06,51,2.80
2014,04,20,06,52,2.80
2014,04,20,06,53,2.90
2014,04,20,06,54,2.90
2014,04,20,06,55,2.90
2014,04,20,06,56,2.90
2014,04,20,06,57,3.00
2014,04,20,06,58,3.00
2014,04,20,06,59,3.00
2014,04,20,07,00,3.10
2014,04,20,07,01,3.10
2014,04,20,07,02,3.10
2014,04,20,07,03,3.10
2014,04,20,07,04,3.10
2014,04,20,07,05,3.10
2014,04,20,07,06,3.10
2014,04,20,07,07,3.20
2014,04,20,07,08,3.20
2014,04,20,07,09,3.20
2014,04,20,07,10,3.20
2014,04,20,07,11,3.20
2014,04,20,07,12,3.20
2014,04,20,07,13,3.30
2014,04,20,07,14,3.30
2014,04,20,07,15,3.30
2014,04,20,07,16,3.30
2014,04,20,07,17,3.30
2014,04,20,07,18,3.40
2014,04,20,07,19,3.40
2014,04,20,07,20,3.40
2014,04,20,07,21,3.40
2014,04,20,07,22,3.50
2014,04,20,07,23,3.50
2014,04,20,07,24,3.50
2014,04,20,07,25,3.60
2014,04,20,07,26,3.60
2014,04,20,07,27,3.60
2014,04,20,07,28,3.60
2014,04,20,07,29,3.70
2014,04,20,07,30,3.70
2014,04,20,07,31,3.70
2014,04,20,07,32,3.70
2014,04,20,07,33,3.80
2014,04,20,07,34,3.80
2014,04,20,07,35,3.80
2014,04,20,07,36,3.90
2014,04,20,07,37,3.90
2014,04,20,07,38,3.90
2014,04,20,07,39,4.00
2014,04,20,07,40,4.10
2014,04,20,07,41,4.20
2014,04,20,07,42,4.30
2014,04,20,07,43,4.50
2014,04,20,07,44,4.50
2014,04,20,07,45,4.60
2014,04,20,07,46,4.70
2014,04,20,07,47,4.80
2014,04,20,07,48,4.90
2014,04,20,07,49,5.00
2014,04,20,07,50,5.10
2014,04,20,07,51,5.20
2014,04,20,07,52,5.40
2014,04,20,07,53,5.50
2014,04,20,07,54,5.70
2014,04,20,07,55,5.80
2014,04,20,07,56,5.90
2014,04,20,07,57,5.90
2014,04,20,07,58,6.00
2014,04,20,07,59,6.00
2014,04,20,08,00,6.10
2014,04,20,08,01,6.10
2014,04,20,08,02,6.10
2014,04,20,08,03,6.10
2014,04,20,08,04,6.20
2014,04,20,08,05,6.20
2014,04,20,08,06,6.20
2014,04,20,08,07,6.20
2014,04,20,08,08,6.20
2014,04,20,08,09,6.30
2014,04,20,08,10,6.30
2014,04,20,08,11,6.30
2014,04,20,08,12,6.30
2014,04,20,08,13,6.30
2014,04,20,08,14,6.40
2014,04,20,08,15,6.40
2014,04,20,08,16,6.40
2014,04,20,08,17,6.50
2014,04,20,08,18,6.50
2014,04,20,08,19,6.60
2014,04,20,08,20,6.60
2014,04,20,08,21,6.70
2014,04,20,08,22,6.80
2014,04,20,08,23,6.90
2014,04,20,08,24,6.90
2014,04,20,08,25,7.00
2014,04,20,08,26,7.10
2014,04,20,08,27,7.10
2014,04,20,08,28,7.10
2014,04,20,08,29,7.10
2014,04,20,08,30,7.10
2014,04,20,08,31,7.10
2014,04,20,08,32,7.10
2014,04,20,08,33,7.10
2014,04,20,08,34,7.10
2014,04,20,08,35,7.20
2014,04,20,08,36,7.20
2014,04,20,08,37,7.20
2014,04,20,08,38,7.30
2014,04,20,08,39,7.30
2014,04,20,08,40,7.30
2014,04,20,08,41,7.40
2014,04,20,08,42,7.40
2014,04,20,08,43,7.40
2014,04,20,08,44,7.40
2014,04,20,08,45,7.50
2014,04,20,08,46,7.50
2014,04,20,08,47,7.60
2014,04,20,08,48,7.60
2014,04,20,08,49,7.60
2014,04,20,08,50,7.70
2014,04,20,08,51,7.70
2014,04,20,08,52,7.70
2014,04,20,08,53,7.70
2014,04,20,08,54,7.70
2014,04,20,08,55,7.70
2014,04,20,08,56,7.80
2014,04,20,08,57,7.80
2014,04,20,08,58,7.80
2014,04,20,08,59,7.80
2014,04,20,09,00,7.80
2014,04,20,09,01,7.80
2014,04,20,09,02,7.80
2014,04,20,09,03,7.80
2014,04,20,09,04,7.90
2014,04,20,09,05,7.90
2014,04,20,09,06,7.90
2014,04,20,09,07,8.00
2014,04,20,09,08,8.00
2014,04,20,09,09,8.00
2014,04,20,09,10,8.10
2014,04,20,09,11,8.10
2014,04,20,09,12,8.20
2014,04,20,09,13,8.20
2014,04,20,09,14,8.20
2014,04,20,09,15,8.30
2014,04,20,09,16,8.30
2014,04,20,09,17,8.30
2014,04,20,09,18,8.40
2014,04,20,09,19,8.40
2014,04,20,09,20,8.50
2014,04,20,09,21,8.50
2014,04,20,09,22,8.50
2014,04,20,09,23,8.60
2014,04,20,09,24,8.60
2014,04,20,09,25,8.60
2014,04,20,09,26,8.70
2014,04,20,09,27,8.70
2014,04,20,09,28,8.70
2014,04,20,09,29,8.70
2014,04,20,09,30,8.80
2014,04,20,09,31,8.80
2014,04,20,09,32,8.80
2014,04,20,09,33,8.80
2014,04,20,09,34,8.80
2014,04,20,09,35,8.90
2014,04,20,09,36,8.90
2014,04,20,09,37,8.90
2014,04,20,09,38,8.90
2014,04,20,09,39,9.00
2014,04,20,09,40,9.00
2014,04,20,09,41,9.00
2014,04,20,09,42,9.10
2014,04,20,09,43,9.10
2014,04,20,09,44,9.10
2014,04,20,09,45,9.10
2014,04,20,09,46,9.10
2014,04,20,09,47,9.20
2014,04,20,09,48,9.20
2014,04,20,09,49,9.20
2014,04,20,09,50,9.20
2014,04,20,09,51,9.20
2014,04,20,09,52,9.30
2014,04,20,09,53,9.30
2014,04,20,09,54,9.30
2014,04,20,09,55,9.30
2014,04,20,09,56,9.30
2014,04,20,09,57,9.40
2014,04,20,09,58,9.40
2014,04,20,09,59,9.40
2014,04,20,10,00,9.40
2014,04,20,10,01,9.40
2014,04,20,10,02,9.50
2014,04,20,10,03,9.50
2014,04,20,10,04,9.50
2014,04,20,10,05,9.60
2014,04,20,10,06,9.60
2014,04,20,10,07,9.60
2014,04,20,10,08,9.60
2014,04,20,10,09,9.70
2014,04,20,10,10,9.70
2014,04,20,10,11,9.70
2014,04,20,10,12,9.70
2014,04,20,10,13,9.70
2014,04,20,10,14,9.70
2014,04,20,10,15,9.70
2014,04,20,10,16,9.80
2014,04,20,10,17,9.80
2014,04,20,10,18,9.80
2014,04,20,10,19,9.80
2014,04,20,10,20,9.80
2014,04,20,10,21,9.80
2014,04,20,10,22,9.80
2014,04,20,10,23,9.80
2014,04,20,10,24,9.80
2014,04,20,10,25,9.80
2014,04,20,10,26,9.80
2014,04,20,10,27,9.80
2014,04,20,10,28,9.80
2014,04,20,10,29,9.80
2014,04,20,10,30,9.90
2014,04,20,10,31,9.90
2014,04,20,10,32,10.00
2014,04,20,10,33,10.00
2014,04,20,10,34,10.10
2014,04,20,10,35,10.10
2014,04,20,10,36,10.20
2014,04,20,10,37,10.20
2014,04,20,10,38,10.20
2014,04,20,10,39,10.20
2014,04,20,10,40,10.20
2014,04,20,10,41,10.20
2014,04,20,10,42,10.10
2014,04,20,10,43,10.20
2014,04,20,10,44,10.20
2014,04,20,10,45,10.20
2014,04,20,10,46,10.20
2014,04,20,10,47,10.20
2014,04,20,10,48,10.30
2014,04,20,10,49,10.30
2014,04,20,10,50,10.30
2014,04,20,10,51,10.30
2014,04,20,10,52,10.30
2014,04,20,10,53,10.40
2014,04,20,10,54,10.40
2014,04,20,10,55,10.40
2014,04,20,10,56,10.30
2014,04,20,10,57,10.30
2014,04,20,10,58,10.30
2014,04,20,10,59,10.30
2014,04,20,11,00,10.30
2014,04,20,11,01,10.20
2014,04,20,11,02,10.20
2014,04,20,11,03,10.10
2014,04,20,11,04,10.10
2014,04,20,11,05,10.10
2014,04,20,11,06,10.10
2014,04,20,11,07,10.10
2014,04,20,11,08,10.10
2014,04,20,11,09,10.10
2014,04,20,11,10,10.10
2014,04,20,11,11,10.10
2014,04,20,11,12,10.10
2014,04,20,11,13,10.10
2014,04,20,11,14,10.10
2014,04,20,11,15,10.10
2014,04,20,11,16,10.10
2014,04,20,11,17,10.10
2014,04,20,11,18,10.10
2014,04,20,11,19,10.00
2014,04,20,11,20,10.00
2014,04,20,11,21,9.90
2014,04,20,11,22,9.90
2014,04,20,11,23,9.90
2014,04,20,11,24,9.80
2014,04,20,11,25,9.80
2014,04,20,11,26,9.80
2014,04,20,11,27,9.80
2014,04,20,11,28,9.80
2014,04,20,11,29,9.70
2014,04,20,11,30,9.70
2014,04,20,11,31,9.70
2014,04,20,11,32,9.70
2014,04,20,11,33,9.70
2014,04,20,11,34,9.70
2014,04,20,11,35,9.70
2014,04,20,11,36,9.60
2014,04,20,11,37,9.60
2014,04,20,11,38,9.60
2014,04,20,11,39,9.60
2014,04,20,11,40,9.60
2014,04,20,11,41,9.60
2014,04,20,11,42,9.70
2014,04,20,11,43,9.70
2014,04,20,11,44,9.70
2014,04,20,11,45,9.70
2014,04,20,11,46,9.70
2014,04,20,11,47,9.70
2014,04,20,11,48,9.80
2014,04,20,11,49,9.80
2014,04,20,11,50,9.80
2014,04,20,11,51,9.80
2014,04,20,11,52,9.80
2014,04,20,11,53,9.80
2014,04,20,11,54,9.80
2014,04,20,11,55,9.80
2014,04,20,11,56,9.90
2014,04,20,11,57,9.90
2014,04,20,11,58,10.00
2014,04,20,11,59,10.10
2014,04,20,12,00,10.10
2014,04,20,12,01,10.20
2014,04,20,12,02,10.20
2014,04,20,12,03,10.20
2014,04,20,12,04,10.30
2014,04,20,12,05,10.40
2014,04,20,12,06,10.40
2014,04,20,12,07,10.50
2014,04,20,12,08,10.60
2014,04,20,12,09,10.60
2014,04,20,12,10,10.60
2014,04,20,12,11,10.70
2014,04,20,12,12,10.70
2014,04,20,12,13,10.70
2014,04,20,12,14,10.70
2014,04,20,12,15,10.80
2014,04,20,12,16,10.80
2014,04,20,12,17,10.80
2014,04,20,12,18,10.80
2014,04,20,12,19,10.80
2014,04,20,12,20,10.80
2014,04,20,12,21,10.80
2014,04,20,12,22,10.80
2014,04,20,12,23,10.80
2014,04,20,12,24,10.80
2014,04,20,12,25,10.80
2014,04,20,12,26,10.70
2014,04,20,12,27,10.70
2014,04,20,12,28,10.70
2014,04,20,12,29,10.70
2014,04,20,12,30,10.70
2014,04,20,12,31,10.80
2014,04,20,12,32,10.80
2014,04,20,12,33,10.70
2014,04,20,12,34,10.70
2014,04,20,12,35,10.60
2014,04,20,12,36,10.60
2014,04,20,12,37,10.60
2014,04,20,12,38,10.60
2014,04,20,12,39,10.70
2014,04,20,12,40,10.70
2014,04,20,12,41,10.80
2014,04,20,12,42,10.80
2014,04,20,12,43,10.80
2014,04,20,12,44,10.80
2014,04,20,12,45,10.80
2014,04,20,12,46,10.80
2014,04,20,12,47,10.80
2014,04,20,12,48,10.80
2014,04,20,12,49,10.80
2014,04,20,12,50,10.90
2014,04,20,12,51,10.90
2014,04,20,12,52,10.90
2014,04,20,12,53,10.90
2014,04,20,12,54,10.90
2014,04,20,12,55,10.80
2014,04,20,12,56,10.80
2014,04,20,12,57,10.80
2014,04,20,12,58,10.80
2014,04,20,12,59,10.80
2014,04,20,13,00,10.80
2014,04,20,13,01,10.80
2014,04,20,13,02,10.80
2014,04,20,13,03,10.80
2014,04,20,13,04,10.80
2014,04,20,13,05,10.80
2014,04,20,13,06,10.80
2014,04,20,13,07,10.70
2014,04,20,13,08,10.70
2014,04,20,13,09,10.70
2014,04,20,13,10,10.70
2014,04,20,13,11,10.70
2014,04,20,13,12,10.80
2014,04,20,13,13,10.80
2014,04,20,13,14,10.80
2014,04,20,13,15,10.80
2014,04,20,13,16,10.80
2014,04,20,13,17,10.80
2014,04,20,13,18,10.80
2014,04,20,13,19,10.80
2014,04,20,13,20,10.80
2014,04,20,13,21,10.80
2014,04,20,13,22,10.80
2014,04,20,13,23,10.70
2014,04,20,13,24,10.70
2014,04,20,13,25,10.70
2014,04,20,13,26,10.70
2014,04,20,13,27,10.70
2014,04,20,13,28,10.70
2014,04,20,13,29,10.80
2014,04,20,13,30,10.80
2014,04,20,13,31,10.80
2014,04,20,13,32,10.80
2014,04,20,13,33,10.80
2014,04,20,13,34,10.80
2014,04,20,13,35,10.80
2014,04,20,13,36,10.90
2014,04,20,13,37,10.90
2014,04,20,13,38,10.90
2014,04,20,13,39,10.90
2014,04,20,13,40,11.00
2014,04,20,13,41,11.00
2014,04,20,13,42,11.10
2014,04,20,13,43,11.10
2014,04,20,13,44,11.10
2014,04,20,13,45,11.10
2014,04,20,13,46,11.00
2014,04,20,13,47,11.00
2014,04,20,13,48,11.10
2014,04,20,13,49,11.10
2014,04,20,13,50,11.10
2014,04,20,13,51,11.10
2014,04,20,13,52,11.10
2014,04,20,13,53,11.10
2014,04,20,13,54,11.20
2014,04,20,13,55,11.20
2014,04,20,13,56,11.20
2014,04,20,13,57,11.20
2014,04,20,13,58,11.20
2014,04,20,13,59,11.20
2014,04,20,14,00,11.20
2014,04,20,14,01,11.20
2014,04,20,14,02,11.20
2014,04,20,14,03,11.20
2014,04,20,14,04,11.10
2014,04,20,14,05,11.10
2014,04,20,14,06,11.10
2014,04,20,14,07,11.10
2014,04,20,14,08,11.10
2014,04,20,14,09,11.20
2014,04,20,14,10,11.20
2014,04,20,14,11,11.10
2014,04,20,14,12,11.10
2014,04,20,14,13,11.10
2014,04,20,14,14,11.00
2014,04,20,14,15,11.00
2014,04,20,14,16,11.10
2014,04,20,14,17,11.10
2014,04,20,14,18,11.10
2014,04,20,14,19,11.10
2014,04,20,14,20,11.10
2014,04,20,14,21,11.10
2014,04,20,14,22,11.00
2014,04,20,14,23,11.00
2014,04,20,14,24,11.00
2014,04,20,14,25,11.00
2014,04,20,14,26,11.00
2014,04,20,14,27,11.00
2014,04,20,14,28,11.00
2014,04,20,14,29,11.00
2014,04,20,14,30,11.00
2014,04,20,14,31,11.00
2014,04,20,14,32,11.00
2014,04,20,14,33,11.00
2014,04,20,14,34,11.10
2014,04,20,14,35,11.10
2014,04,20,14,36,11.10
2014,04,20,14,37,11.20
2014,04,20,14,38,11.20
2014,04,20,14,39,11.20
2014,04,20,14,40,11.30
2014,04,20,14,41,11.30
2014,04,20,14,42,11.40
2014,04,20,14,43,11.40
2014,04,20,14,44,11.40
2014,04,20,14,45,11.50
2014,04,20,14,46,11.50
2014,04,20,14,47,11.50
2014,04,20,14,48,11.50
2014,04,20,14,49,11.50
2014,04,20,14,50,11.50
2014,04,20,14,51,11.50
2014,04,20,14,52,11.50
2014,04,20,14,53,11.50
2014,04,20,14,54,11.40
2014,04,20,14,55,11.40
2014,04,20,14,56,11.40
2014,04,20,14,57,11.50
2014,04,20,14,58,11.40
2014,04,20,14,59,11.40
2014,04,20,15,00,11.40
2014,04,20,15,01,11.40
2014,04,20,15,02,11.30
2014,04,20,15,03,11.30
2014,04,20,15,04,11.30
2014,04,20,15,05,11.30
2014,04,20,15,06,11.30
2014,04,20,15,07,11.30
2014,04,20,15,08,11.30
2014,04,20,15,09,11.30
2014,04,20,15,10,11.40
2014,04,20,15,11,11.40
2014,04,20,15,12,11.40
2014,04,20,15,13,11.40
2014,04,20,15,14,11.40
2014,04,20,15,15,11.40
2014,04,20,15,16,11.40
2014,04,20,15,17,11.40
2014,04,20,15,18,11.40
2014,04,20,15,19,11.40
2014,04,20,15,20,11.40
2014,04,20,15,21,11.50
2014,04,20,15,22,11.50
2014,04,20,15,23,11.50
2014,04,20,15,24,11.50
2014,04,20,15,25,11.50
2014,04,20,15,26,11.50
2014,04,20,15,27,11.50
2014,04,20,15,28,11.40
2014,04,20,15,29,11.40
2014,04,20,15,30,11.30
2014,04,20,15,31,11.30
2014,04,20,15,32,11.30
2014,04,20,15,33,11.20
2014,04,20,15,34,11.20
2014,04,20,15,35,11.20
2014,04,20,15,36,11.20
2014,04,20,15,37,11.10
2014,04,20,15,38,11.10
2014,04,20,15,39,11.10
2014,04,20,15,40,11.00
2014,04,20,15,41,10.90
2014,04,20,15,42,10.90
2014,04,20,15,43,10.80
2014,04,20,15,44,10.80
2014,04,20,15,45,10.80
2014,04,20,15,46,10.80
2014,04,20,15,47,10.80
2014,04,20,15,48,10.80
2014,04,20,15,49,10.70
2014,04,20,15,50,10.70
2014,04,20,15,51,10.70
2014,04,20,15,52,10.60
2014,04,20,15,53,10.60
2014,04,20,15,54,10.60
2014,04,20,15,55,10.60
2014,04,20,15,56,10.60
2014,04,20,15,57,10.70
2014,04,20,15,58,10.70
2014,04,20,15,59,10.70
2014,04,20,16,00,10.70
2014,04,20,16,01,10.70
2014,04,20,16,02,10.70
2014,04,20,16,03,10.70
2014,04,20,16,04,10.70
2014,04,20,16,05,10.70
2014,04,20,16,06,10.70
2014,04,20,16,07,10.70
2014,04,20,16,08,10.70
2014,04,20,16,09,10.70
2014,04,20,16,10,10.70
2014,04,20,16,11,10.70
2014,04,20,16,12,10.70
2014,04,20,16,13,10.70
2014,04,20,16,14,10.70
2014,04,20,16,15,10.80
2014,04,20,16,16,10.80
2014,04,20,16,17,10.80
2014,04,20,16,18,10.80
2014,04,20,16,19,10.80
2014,04,20,16,20,10.80
2014,04,20,16,21,10.80
2014,04,20,16,22,10.80
2014,04,20,16,23,10.70
2014,04,20,16,24,10.70
2014,04,20,16,25,10.70
2014,04,20,16,26,10.70
2014,04,20,16,27,10.60
2014,04,20,16,28,10.60
2014,04,20,16,29,10.50
2014,04,20,16,30,10.50
2014,04,20,16,31,10.40
2014,04,20,16,32,10.30
2014,04,20,16,33,10.30
2014,04,20,16,34,10.30
2014,04,20,16,35,10.30
2014,04,20,16,36,10.30
2014,04,20,16,37,10.30
2014,04,20,16,38,10.20
2014,04,20,16,39,10.20
2014,04,20,16,40,10.20
2014,04,20,16,41,10.20
2014,04,20,16,42,10.20
2014,04,20,16,43,10.20
2014,04,20,16,44,10.20
2014,04,20,16,45,10.20
2014,04,20,16,46,10.30
2014,04,20,16,47,10.30
2014,04,20,16,48,10.30
2014,04,20,16,49,10.30
2014,04,20,16,50,10.30
2014,04,20,16,51,10.20
2014,04,20,16,52,10.20
2014,04,20,16,53,10.20
2014,04,20,16,54,10.20
2014,04,20,16,55,10.20
2014,04,20,16,56,10.20
2014,04,20,16,57,10.20
2014,04,20,16,58,10.20
2014,04,20,16,59,10.20
2014,04,20,17,00,10.20
2014,04,20,17,01,10.20
2014,04,20,17,02,10.20
2014,04,20,17,03,10.20
2014,04,20,17,04,10.20
2014,04,20,17,05,10.20
2014,04,20,17,06,10.20
2014,04,20,17,07,10.20
2014,04,20,17,08,10.20
2014,04,20,17,09,10.20
2014,04,20,17,10,10.20
2014,04,20,17,11,10.20
2014,04,20,17,12,10.20
2014,04,20,17,13,10.20
2014,04,20,17,14,10.20
2014,04,20,17,15,10.20
2014,04,20,17,16,10.30
2014,04,20,17,17,10.30
2014,04,20,17,18,10.30
2014,04,20,17,19,10.30
2014,04,20,17,20,10.30
2014,04,20,17,21,10.30
2014,04,20,17,22,10.30
2014,04,20,17,23,10.30
2014,04,20,17,24,10.30
2014,04,20,17,25,10.30
2014,04,20,17,26,10.30
2014,04,20,17,27,10.30
2014,04,20,17,28,10.30
2014,04,20,17,29,10.30
2014,04,20,17,30,10.20
2014,04,20,17,31,10.20
2014,04,20,17,32,10.20
2014,04,20,17,33,10.20
2014,04,20,17,34,10.20
2014,04,20,17,35,10.20
2014,04,20,17,36,10.10
2014,04,20,17,37,10.10
2014,04,20,17,38,10.10
2014,04,20,17,39,10.10
2014,04,20,17,40,10.10
2014,04,20,17,41,10.00
2014,04,20,17,42,10.00
2014,04,20,17,43,10.00
2014,04,20,17,44,10.00
2014,04,20,17,45,10.00
2014,04,20,17,46,10.00
2014,04,20,17,47,9.90
2014,04,20,17,48,10.00